2023/02/27 00:00:00,89.8,-2.2
2023/02/27 00:10:00,89.7,-2.5
2023/02/27 00:20:00,89.7,-2.5
2023/02/27 00:30:00,89.7,-2.7
2023/02/27 00:40:00,89.7,-2.8
2023/02/27 00:50:00,89.7,-2.8
2023/02/27 01:00:00,89.7,-3.1
2023/02/27 01:10:00,89.6,-3.4
2023/02/27 01:20:00,89.7,-3.6
2023/02/27 01:30:00,89.7,-3.7
2023/02/27 01:40:00,89.6,-3.7
2023/02/27 01:50:00,89.7,-3.8
2023/02/27 02:00:00,89.6,-3.8
2023/02/27 02:10:00,89.6,-3.8
2023/02/27 02:20:00,89.6,-4.2
2023/02/27 02:30:00,89.6,-3.7
2023/02/27 02:40:00,89.6,-3.8
2023/02/27 02:50:00,89.5,-3.9
2023/02/27 03:00:00,89.5,-3.7
2023/02/27 03:10:00,89.5,-4.2
2023/02/27 03:20:00,89.5,-3.3
2023/02/27 03:30:00,89.5,-4.2
2023/02/27 03:40:00,89.5,-3.8
2023/02/27 03:50:00,89.4,-3.9
2023/02/27 04:00:00,89.4,-3.8
2023/02/27 04:10:00,89.4,-3.8
2023/02/27 04:20:00,89.4,-3.5
2023/02/27 04:30:00,89.3,-3.5
2023/02/27 04:40:00,89.3,-3.6
2023/02/27 04:50:00,89.3,-3.4
2023/02/27 05:00:00,89.3,-3.5
2023/02/27 05:10:00,89.3,-3.7
2023/02/27 05:20:00,89.3,-3.6
2023/02/27 05:30:00,89.3,-3.3
2023/02/27 05:40:00,89.3,-3.2
2023/02/27 05:50:00,89.3,-3.4
2023/02/27 06:00:00,89.2,-3.3
2023/02/27 06:10:00,89.2,-3.8
2023/02/27 06:20:00,89.2,-3.5
2023/02/27 06:30:00,89.2,-3.8
2023/02/27 06:40:00,89.1,-4.3
2023/02/27 06:50:00,89.1,-4.4
2023/02/27 07:00:00,89.1,-4.5
2023/02/27 07:10:00,89.1,-4.1
2023/02/27 07:20:00,89.1,-3.8
2023/02/27 07:30:00,89.1,-3.0
2023/02/27 07:40:00,89.0,-3.2
2023/02/27 07:50:00,89.0,-3.2
2023/02/27 08:00:00,89.0,-2.9
2023/02/27 08:10:00,88.9,-3.0
2023/02/27 08:20:00,88.8,-3.0
2023/02/27 08:30:00,88.8,-2.4
2023/02/27 08:40:00,88.8,-2.7
2023/02/27 08:50:00,88.8,-1.7
2023/02/27 09:00:00,88.8, 0.0
2023/02/27 09:10:00,88.8, 1.5
2023/02/27 09:20:00,88.8, 4.0
2023/02/27 09:30:00,88.7, 4.8
2023/02/27 09:40:00,88.7, 6.6
2023/02/27 09:50:00,88.7, 6.8
2023/02/27 10:00:00,88.5, 7.4
2023/02/27 10:10:00,88.4, 7.9
2023/02/27 10:20:00,88.4, 7.4
2023/02/27 10:30:00,88.3, 7.6
2023/02/27 10:40:00,87.9, 8.9
2023/02/27 10:50:00,87.5, 9.4
2023/02/27 11:00:00,87.1, 9.8
2023/02/27 11:10:00,86.6,10.0
2023/02/27 11:20:00,86.0,10.3
2023/02/27 11:30:00,85.8,10.4
2023/02/27 11:40:00,85.7,10.6
2023/02/27 11:50:00,85.6,12.2
2023/02/27 12:00:00,85.4,12.9
2023/02/27 12:10:00,85.3,12.5
2023/02/27 12:20:00,85.3,13.7
2023/02/27 12:30:00,85.1,13.5
2023/02/27 12:40:00,85.1,14.7
2023/02/27 12:50:00,84.9,15.5
2023/02/27 13:00:00,84.5,14.6
2023/02/27 13:10:00,84.4,16.2
2023/02/27 13:20:00,84.1,17.6
2023/02/27 13:30:00,83.8,16.8
2023/02/27 13:40:00,83.2,17.1
2023/02/27 13:50:00,82.8,17.0
2023/02/27 14:00:00,82.0,17.3
2023/02/27 14:10:00,81.7,17.6
2023/02/27 14:20:00,81.4,17.7
2023/02/27 14:30:00,81.1,17.5
2023/02/27 14:40:00,81.0,18.0
2023/02/27 14:50:00,80.7,18.0
2023/02/27 15:00:00,80.4,18.9
2023/02/27 15:10:00,80.1,19.4
2023/02/27 15:20:00,79.8,19.7
2023/02/27 15:30:00,79.7,20.7
2023/02/27 15:40:00,79.3,20.4
2023/02/27 15:50:00,79.1,20.7
2023/02/27 16:00:00,79.0,20.8
2023/02/27 16:10:00,79.0,20.1
2023/02/27 16:20:00,79.0,19.8
2023/02/27 16:30:00,78.9,19.0
2023/02/27 16:40:00,79.1,18.0
2023/02/27 16:50:00,79.5,14.1
2023/02/27 17:00:00,79.5,12.0
2023/02/27 17:10:00,79.6,11.1
2023/02/27 17:20:00,79.4,10.4
2023/02/27 17:30:00,79.3, 8.5
2023/02/27 17:40:00,79.5, 6.7
2023/02/27 17:50:00,79.5, 5.8
2023/02/27 18:00:00,79.8, 4.0
2023/02/27 18:10:00,79.9, 3.1
2023/02/27 18:20:00,80.0, 3.0
2023/02/27 18:30:00,79.9, 2.6
2023/02/27 18:40:00,80.0, 2.3
2023/02/27 18:50:00,79.9, 2.5
2023/02/27 19:00:00,80.0, 2.5
2023/02/27 19:10:00,80.0, 2.2
2023/02/27 19:20:00,79.9, 2.4
2023/02/27 19:30:00,80.0, 2.0
2023/02/27 19:40:00,80.0, 1.9
2023/02/27 19:50:00,79.9, 2.0
2023/02/27 20:00:00,79.9, 1.7
2023/02/27 20:10:00,79.9, 1.6
2023/02/27 20:20:00,79.9, 1.7
2023/02/27 20:30:00,79.9, 1.7
2023/02/27 20:40:00,79.9, 1.5
2023/02/27 20:50:00,79.7, 1.5
2023/02/27 21:00:00,79.7, 1.6
2023/02/27 21:10:00,79.7, 1.5
2023/02/27 21:20:00,79.7, 1.1
2023/02/27 21:30:00,79.7, 1.6
2023/02/27 21:40:00,79.7, 1.3
2023/02/27 21:50:00,79.7, 1.1
2023/02/27 22:00:00,79.7, 1.4
2023/02/27 22:10:00,79.7, 1.3
2023/02/27 22:20:00,79.7, 1.1
2023/02/27 22:30:00,79.7, 1.2
2023/02/27 22:40:00,79.8, 1.1
2023/02/27 22:50:00,79.7, 1.1
2023/02/27 23:00:00,79.7, 1.7
2023/02/27 23:10:00,79.7, 0.7
2023/02/27 23:20:00,79.7, 0.7
2023/02/27 23:30:00,79.7, 0.6
2023/02/27 23:40:00,79.8, 0.4
2023/02/27 23:50:00,79.8, 0.6
